Regional Weather Roundup
Issued by NWS Goodland, KS

Home | Current Version | Previous Version | Text Only | Print | Product List | Glossary Off
Versions: 1 2 3 4 5 6 7 8 9 10 11 12 13 14 15 16 17 18 19 20 21 22 23 24 25 26 27 28 29 30 31 32 33 34 35 36 37 38 39 40 41 42 43 44 45 46 47 48 49 50

000
ASUS43 KGLD 232208
RWRGLD

GOODLAND FORECAST AREA HOURLY WEATHER ROUNDUP
NATIONAL WEATHER SERVICE GOODLAND KS
400 PM MDT FRI JUN 23 2017

...OFFICIAL OBSERVATIONS...

CITY           SKY/WX    TMP DP  RH WIND       PRES   REMARKS
GOODLAND KS    CLOUDY    70  49  47 W7        30.17F
HILL CITY KS   MOSUNNY   82  47  29 NW9       30.08F
IMPERIAL NEB   PTSUNNY   75  33  21 W10       30.15F
MCCOOK NEB     PTSUNNY   80  38  22 NW15      30.10F
AKRON CO       PTSUNNY   67  42  40 SW8       30.22F
BURLINGTON CO  CLOUDY    65  46  50 NW6       30.21F
LIMON CO       CLOUDY    60  43  53 VRB5      30.26S
$$

...UNOFFICIAL OBSERVATIONS...

CITY           SKY/WX    TMP DP  RH WIND       PRES   REMARKS
LENORA KS        N/A     78  32  18 MISG        N/A
NORTON KS      MOSUNNY   81  32  17 W16       30.07F
SHARON SPRINGS   N/A     67  49  53 N5G12       N/A
TRENTON NEB      N/A     76  32  20 NW8         N/A
KIT CARSON CO    N/A     68  46  45 CALM        N/A
YUMA CO        PTSUNNY   66  39  37 N3        30.20F
$$



USA.gov is the U.S. government's official web portal to all federal, state and local government web resources and services.